Olbia, Italy

4:55 AM CEST on September 20, 2018 (GMT +0200)
Costa Smeralda

Weather History for LIEO - June, 2018

Change the Weather History Date:

Thursday, June 14, 2018

  Actual Average Record
Temperature  
Mean Temperature 72 °F -  
Max Temperature 82 °F 84 °F 91 °F (2003)
Min Temperature 62 °F 62 °F 51 °F (2006)
Cooling Degree Days 7    
Growing Degree Days 22 (Base 50)    
Moisture  
Dew Point 63 °F    
Average Humidity 75    
Maximum Humidity 100    
Minimum Humidity 40    
Precipitation  
Precipitation 0.00 in 0.02 in - ()
Sea Level Pressure  
Sea Level Pressure 29.74 in    
Wind  
Wind Speed 8 mph ()    
Max Wind Speed 15 mph    
Max Gust Speed -    
Visibility 6.9 miles    
Events Rain    
Averages and records for this station are not official NWS values.
T = Trace of Precipitation, MM = Missing Value Source: Averaged Metar Reports

Daily Weather History Graph

Daily Weather History Graph

Search for Another Location

Airport or City:

Astronomy

Jun. 14, 2018 Rise Set
Actual Time 5:49 AM CEST 8:55 PM CEST
Civil Twilight 5:16 AM CEST 9:28 PM CEST
Nautical Twilight 4:33 AM CEST 10:11 PM CEST
Astronomical Twilight 3:42 AM CEST 11:01 PM CEST
Moon 6:31 AM CEST (6/14) 9:37 PM CEST (6/14)
Length of Visible Light 16h 12m
Length of Day
15h 05m
New Moon, 1% of the Moon is Illuminated
Jun 14
New Moon
Jun 20
First Quarter
Jun 28
Full
Jul 6
Last Quarter
Jul 13
New

Hourly Weather History & Observations

Time (CEST) Temp. Heat Index Dew Point Humidity Pressure Visibility Wind Dir Wind Speed Gust Speed Precip Events Conditions
12:20 AM 64.4 °F - 62.6 °F 94% 29.68 in 5.0 mi WSW 12.7 mph - N/A Rain Light Rain
12:50 AM 62.6 °F - 62.6 °F 100% 29.71 in 6.2 mi WSW 10.4 mph - N/A   Scattered Clouds
1:20 AM 64.4 °F - 62.6 °F 94% 29.71 in 6.2 mi WSW 9.2 mph - N/A   Scattered Clouds
1:50 AM 64.4 °F - 62.6 °F 94% 29.71 in 6.2 mi WSW 6.9 mph - N/A Rain Light Rain
2:00 AM 65 °F - 63 °F 91% 29.71 in 6 mi WSW 8.1 mph - - Rain Light Rain
2:50 AM 64.4 °F - 64.4 °F 100% 29.68 in 6.2 mi WSW 5.8 mph - N/A Rain Light Rain
3:20 AM 64.4 °F - 64.4 °F 100% 29.68 in 6.2 mi SW 6.9 mph - N/A   Scattered Clouds
3:50 AM 64.4 °F - 62.6 °F 94% 29.68 in 6.2 mi Variable 2.3 mph - N/A   Scattered Clouds
4:20 AM 64.4 °F - 62.6 °F 94% 29.68 in 6.2 mi WSW 9.2 mph - N/A   Scattered Clouds
4:50 AM 64.4 °F - 62.6 °F 94% 29.68 in 6.2 mi WSW 8.1 mph - N/A   Scattered Clouds
5:00 AM 64 °F - 62 °F 93% 29.69 in 6 mi West 6.9 mph - -   Mostly Cloudy
5:20 AM 64.4 °F - 62.6 °F 94% 29.68 in 6.2 mi West 5.8 mph - N/A   Scattered Clouds
5:50 AM 64.4 °F - 62.6 °F 94% 29.68 in 6.2 mi West 5.8 mph - N/A   Scattered Clouds
6:20 AM 64.4 °F - 62.6 °F 94% 29.71 in 6.2 mi WSW 4.6 mph - N/A   Scattered Clouds
6:50 AM 64.4 °F - 62.6 °F 94% 29.71 in 6.2 mi WSW 4.6 mph - N/A   Scattered Clouds
7:20 AM 66.2 °F - 64.4 °F 94% 29.71 in 6.2 mi WSW 4.6 mph - N/A   Mostly Cloudy
7:50 AM 66.2 °F - 62.6 °F 88% 29.71 in 6.2 mi West 6.9 mph - N/A   Mostly Cloudy
8:20 AM 68.0 °F - 64.4 °F 88% 29.71 in 6.2 mi WNW 5.8 mph - N/A   Mostly Cloudy
8:50 AM 69.8 °F - 64.4 °F 83% 29.71 in 6.2 mi NW 4.6 mph - N/A   Scattered Clouds
9:20 AM 71.6 °F - 64.4 °F 78% 29.74 in 6.2 mi NW 9.2 mph - N/A   Mostly Cloudy
9:50 AM 71.6 °F - 64.4 °F 78% 29.74 in 6.2 mi NW 8.1 mph - N/A   Mostly Cloudy
10:20 AM 71.6 °F - 64.4 °F 78% 29.74 in 6.2 mi NNW 6.9 mph - N/A   Mostly Cloudy
11:00 AM 75 °F - 62 °F 55% 29.75 in - NNW 8.1 mph - -  
11:20 AM 75.2 °F - 62.6 °F 65% 29.74 in 6.2 mi North 10.4 mph - N/A   Scattered Clouds
11:50 AM 75.2 °F - 62.6 °F 65% 29.74 in 6.2 mi North 11.5 mph - N/A   Scattered Clouds
12:20 PM 77.0 °F - 62.6 °F 61% 29.74 in 6.2 mi North 9.2 mph - N/A   Scattered Clouds
12:50 PM 77.0 °F - 62.6 °F 61% 29.74 in 6.2 mi NNE 9.2 mph - N/A   Scattered Clouds
2:00 PM 80 °F - 60 °F 40% 29.76 in 17 mi North 9.2 mph - -   Partly Cloudy
2:20 PM 80.6 °F 81.1 °F 59.0 °F 48% 29.74 in 6.2 mi North 9.2 mph - N/A   Scattered Clouds
3:20 PM 80.6 °F 81.1 °F 59.0 °F 48% 29.74 in 6.2 mi North 9.2 mph - N/A   Partly Cloudy
3:50 PM 78.8 °F - 60.8 °F 54% 29.74 in 6.2 mi North 10.4 mph - N/A   Scattered Clouds
4:20 PM 80.6 °F 81.8 °F 62.6 °F 54% 29.74 in 6.2 mi NW 15.0 mph - N/A   Partly Cloudy
4:50 PM 78.8 °F - 60.8 °F 54% 29.74 in 6.2 mi NNW 15.0 mph - N/A   Partly Cloudy
5:20 PM 78.8 °F - 60.8 °F 54% 29.74 in 6.2 mi NW 11.5 mph - N/A   Partly Cloudy
5:50 PM 78.8 °F - 62.6 °F 57% 29.74 in 6.2 mi NW 12.7 mph - N/A   Partly Cloudy
6:20 PM 78.8 °F - 60.8 °F 54% 29.74 in 6.2 mi West 11.5 mph - N/A   Partly Cloudy
6:50 PM 77.0 °F - 60.8 °F 57% 29.74 in 6.2 mi West 12.7 mph - N/A   Partly Cloudy
7:20 PM 77.0 °F - 62.6 °F 61% 29.77 in 6.2 mi WNW 9.2 mph - N/A   Partly Cloudy
7:50 PM 75.2 °F - 62.6 °F 65% 29.77 in - WNW 8.1 mph - N/A   Clear
8:00 PM 75 °F - 62 °F 55% 29.78 in 19 mi West 6.9 mph - -   Scattered Clouds
8:20 PM 75.2 °F - 62.6 °F 65% 29.77 in - Variable 9.2 mph - N/A   Clear
8:50 PM 73.4 °F - 62.6 °F 69% 29.77 in - NW 8.1 mph - N/A   Clear
9:20 PM 73.4 °F - 62.6 °F 69% 29.77 in - WNW 6.9 mph - N/A   Clear
9:50 PM 73.4 °F - 62.6 °F 69% 29.80 in - West 4.6 mph - N/A   Clear
10:20 PM 71.6 °F - 62.6 °F 73% 29.80 in - West 5.8 mph - N/A   Clear
10:50 PM 69.8 °F - 62.6 °F 78% 29.80 in - West 5.8 mph - N/A   Clear
11:00 PM 70 °F - 63 °F 72% 29.82 in 12 mi WSW 4.6 mph - -  
11:20 PM 68.0 °F - 62.6 °F 83% 29.83 in - WSW 4.6 mph - N/A   Clear
11:50 PM 68.0 °F - 64.4 °F 88% 29.83 in - WSW 8.1 mph - N/A   Clear